Location: Gwatt
(46.7204°N, 7.6223°E)
Time: 07:36:53
(UTC+00:00)

Vanguard 2 - Pass Details

Date: 23 January 2021
Orbit: 552 x 2938 km, 32.9° (Epoch: 24 February)

Event Time Altitude Azimuth Distance (km) Brightness Sun altitude
Rises 16:25:05 0° 218° (SW) 2,709 11.8 -1.6°
Reaches altitude 10° 16:28:35 10° 184° (S) 1,903 10.0 -2.2°
Maximum altitude 16:30:06 12° 162° (SSE) 1,864 9.6 -2.4°
Drops below altitude 10° 16:31:45 10° 141° (SE) 2,078 9.6 -2.7°
Sets 16:36:07 0° 110° (ESE) 3,364 10.4 -3.3°
